,,PA_Meas_PMT16A,,PR_Meas_QMR101_102,,RH_Meas_QMH101,,SR_Meas_QMS101,,TA_Meas_QMH101,,GenWind,,GenWind,
time,status,PA,status,PR,status,RH,status,SR,status,TA,status,DirAvg,status,SpdAvg,
2014-11-03, 00:00:04,VALID,919.389,VALID,0,VALID,97.4959,VALID,0,VALID,19.9563,VALID,347,VALID,1.19023,
2014-11-03, 00:01:04,VALID,919.379,VALID,0,VALID,97.4959,VALID,0,VALID,19.9953,VALID,347,VALID,0.937891,
2014-11-03, 00:02:04,VALID,919.332,VALID,0,VALID,97.4882,VALID,0,VALID,20.0163,VALID,356,VALID,1.22187,
2014-11-03, 00:03:04,VALID,919.361,VALID,0,VALID,97.4501,VALID,0,VALID,19.9968,VALID,349,VALID,1.13086,
2014-11-03, 00:04:04,VALID,919.351,VALID,0,VALID,97.4501,VALID,0,VALID,19.9953,VALID,349,VALID,0.270312,
2014-11-03, 00:05:04,VALID,919.329,VALID,0,VALID,97.4425,VALID,0,VALID,20.0163,VALID,349,VALID,0,
2014-11-03, 00:06:04,VALID,919.306,VALID,0,VALID,97.4654,VALID,0,VALID,20.0358,VALID,349,VALID,0,
2014-11-03, 00:07:04,VALID,919.294,VALID,0,VALID,97.4349,VALID,0,VALID,20.0343,VALID,349,VALID,0,
2014-11-03, 00:08:04,VALID,919.274,VALID,0,VALID,97.4349,VALID,0,VALID,20.0749,INVALID,360,VALID,0,
2014-11-03, 00:09:04,VALID,919.258,VALID,0,VALID,97.4654,VALID,0,VALID,20.0749,VALID,349,VALID,0,
2014-11-03, 00:10:04,VALID,919.262,VALID,0,VALID,97.4349,VALID,0,VALID,20.0343,VALID,348,VALID,0,
2014-11-03, 00:11:04,VALID,919.239,VALID,0,VALID,97.4349,VALID,0,VALID,20.0148,VALID,2,VALID,0,
2014-11-03, 00:12:05,VALID,919.233,VALID,0,VALID,97.4349,VALID,0,VALID,20.0343,VALID,22,VALID,0.715234,
2014-11-03, 00:13:05,VALID,919.205,VALID,0,VALID,97.4196,VALID,0,VALID,20.0553,VALID,348,VALID,0.827344,
2014-11-03, 00:14:05,VALID,919.196,VALID,0,VALID,97.412,VALID,0,VALID,20.0148,VALID,27,VALID,0.686719,
2014-11-03, 00:15:05,VALID,919.187,VALID,0,VALID,97.3891,VALID,0,VALID,20.0343,VALID,24,VALID,0.741016,
2014-11-03, 00:16:05,VALID,919.187,VALID,0,VALID,97.3815,VALID,0,VALID,20.0749,VALID,22,VALID,0.694531,
2014-11-03, 00:17:05,VALID,919.186,VALID,0,VALID,97.3891,VALID,0,VALID,20.0538,VALID,20,VALID,0.919141,
2014-11-03, 00:18:05,VALID,919.199,VALID,0,VALID,97.3891,VALID,0,VALID,20.0749,VALID,25,VALID,1.44727,
2014-11-03, 00:19:05,VALID,919.188,VALID,0,VALID,97.3663,VALID,0,VALID,20.0538,VALID,9,VALID,0.996875,
2014-11-03, 00:20:05,VALID,919.207,VALID,0,VALID,97.3739,VALID,0,VALID,20.0538,VALID,355,VALID,0.571094,
2014-11-03, 00:21:05,VALID,919.187,VALID,0,VALID,97.3586,VALID,0,VALID,20.0148,VALID,17,VALID,1.53125,
2014-11-03, 00:22:05,VALID,919.184,VALID,0,VALID,97.351,VALID,0,VALID,20.0148,VALID,12,VALID,0.841797,
2014-11-03, 00:23:05,VALID,919.171,VALID,0,VALID,97.3586,VALID,0,VALID,20.0343,VALID,341,VALID,0.351953,
2014-11-03, 00:24:05,VALID,919.125,VALID,0,VALID,97.3281,VALID,0,VALID,20.0343,VALID,351,VALID,0.5625,
2014-11-03, 00:25:05,VALID,919.098,VALID,0,VALID,97.3358,VALID,0,VALID,19.9953,VALID,345,VALID,1.16211,
2014-11-03, 00:26:05,VALID,919.117,VALID,0,VALID,97.3205,VALID,0,VALID,19.9968,VALID,359,VALID,1.30508,
2014-11-03, 00:27:05,VALID,919.101,VALID,0,VALID,97.2977,VALID,0,VALID,19.9758,VALID,344,VALID,1.61797,
2014-11-03, 00:28:05,VALID,919.056,VALID,0,VALID,97.2672,VALID,0,VALID,19.9758,VALID,360,VALID,0.827734,
2014-11-03, 00:29:05,VALID,919.052,VALID,0,VALID,97.2595,VALID,0,VALID,19.9773,VALID,10,VALID,1.00039,
2014-11-03, 00:30:05,VALID,919.036,VALID,0,VALID,97.2672,VALID,0,VALID,19.9758,VALID,9,VALID,0.508594,
2014-11-03, 00:31:05,VALID,919.05,VALID,0,VALID,97.2672,VALID,0,VALID,19.9758,VALID,10,VALID,1.25703,
2014-11-03, 00:32:05,VALID,919.039,VALID,0,VALID,97.29,VALID,0,VALID,19.9758,VALID,10,VALID,1.13086,
2014-11-03, 00:33:05,VALID,918.999,VALID,0,VALID,97.29,VALID,0,VALID,19.9773,VALID,7,VALID,1.07227,
2014-11-03, 00:34:05,VALID,919.022,VALID,0,VALID,97.3053,VALID,0,VALID,19.9563,VALID,18,VALID,1.03984,
2014-11-03, 00:35:05,VALID,919.023,VALID,0,VALID,97.2977,VALID,0,VALID,19.9758,VALID,17,VALID,1.19375,
2014-11-03, 00:36:05,VALID,919.013,VALID,0,VALID,97.2977,VALID,0,VALID,19.9758,VALID,350,VALID,0.71875,
2014-11-03, 00:37:05,VALID,918.994,VALID,0,VALID,97.3129,VALID,0,VALID,19.9563,VALID,356,VALID,0.669141,
2014-11-03, 00:38:05,VALID,918.979,VALID,0,VALID,97.3205,VALID,0,VALID,19.9563,VALID,355,VALID,1.47852,
2014-11-03, 00:39:05,VALID,918.959,VALID,0,VALID,97.3129,VALID,0,VALID,19.9173,VALID,2,VALID,1.05977,
2014-11-03, 00:40:05,VALID,918.921,VALID,0,VALID,97.3205,VALID,0,VALID,19.9173,VALID,33,VALID,1.81328,
2014-11-03, 00:41:05,VALID,918.923,VALID,0,VALID,97.3205,VALID,0,VALID,19.9173,VALID,24,VALID,1.95898,
2014-11-03, 00:42:05,VALID,918.941,VALID,0,VALID,97.3129,VALID,0,VALID,19.9173,VALID,23,VALID,1.76758,
2014-11-03, 00:43:05,VALID,918.942,VALID,0,VALID,97.2977,VALID,0,VALID,19.9368,VALID,13,VALID,0.883984,
2014-11-03, 00:44:05,VALID,918.906,VALID,0,VALID,97.2977,VALID,0,VALID,19.9173,VALID,15,VALID,0.657422,
2014-11-03, 00:45:05,VALID,918.912,VALID,0,VALID,97.3129,VALID,0,VALID,19.9368,VALID,17,VALID,0,
2014-11-03, 00:46:05,VALID,918.914,VALID,0,VALID,97.3358,VALID,0,VALID,19.9563,VALID,17,VALID,0,
2014-11-03, 00:47:05,VALID,918.893,VALID,0,VALID,97.3586,VALID,0,VALID,19.9563,VALID,13,VALID,0,
2014-11-03, 00:48:05,VALID,918.852,VALID,0,VALID,97.3434,VALID,0,VALID,19.9563,VALID,12,VALID,0,
2014-11-03, 00:49:05,VALID,918.862,VALID,0,VALID,97.3586,VALID,0,VALID,19.9953,VALID,10,VALID,0,
2014-11-03, 00:50:05,VALID,918.841,VALID,0,VALID,97.3663,VALID,0,VALID,19.9563,VALID,15,VALID,0.786719,
2014-11-03, 00:51:05,VALID,918.843,VALID,0,VALID,97.351,VALID,0,VALID,19.9563,VALID,3,VALID,0.489062,
2014-11-03, 00:52:05,VALID,918.824,VALID,0,VALID,97.3663,VALID,0,VALID,19.9368,VALID,9,VALID,1.14258,
2014-11-03, 00:53:05,VALID,918.805,VALID,0,VALID,97.3891,VALID,0,VALID,19.9383,VALID,19,VALID,1.06094,
2014-11-03, 00:54:05,VALID,918.798,VALID,0,VALID,97.3815,VALID,0,VALID,19.9383,VALID,9,VALID,1.19102,
2014-11-03, 00:55:05,VALID,918.803,VALID,0,VALID,97.3891,VALID,0,VALID,19.9368,VALID,36,VALID,0.844141,
2014-11-03, 00:56:05,VALID,918.767,VALID,0,VALID,97.4044,VALID,0,VALID,19.9578,VALID,18,VALID,1.03828,
2014-11-03, 00:57:05,VALID,918.765,VALID,0,VALID,97.412,VALID,0,VALID,19.9188,VALID,23,VALID,0.946484,
2014-11-03, 00:58:05,VALID,918.758,VALID,0,VALID,97.4196,VALID,0,VALID,19.9383,VALID,20,VALID,0.477344,
2014-11-03, 00:59:05,VALID,918.74,VALID,0,VALID,97.4349,VALID,0,VALID,19.9593,VALID,20,VALID,0.529688,
2014-11-03, 01:00:05,VALID,918.748,VALID,0,VALID,97.4577,VALID,0,VALID,19.9383,VALID,16,VALID,0.669531,
2014-11-03, 01:01:05,VALID,918.738,VALID,0,VALID,97.4806,VALID,0,VALID,19.9383,VALID,355,VALID,0.118359,
2014-11-03, 01:02:05,VALID,918.709,VALID,0,VALID,97.4577,VALID,0,VALID,19.9383,VALID,19,VALID,1.00117,
2014-11-03, 01:03:05,VALID,918.717,VALID,0,VALID,97.473,VALID,0,VALID,19.9578,VALID,21,VALID,0.075,
2014-11-03, 01:04:05,VALID,918.699,VALID,0,VALID,97.4959,VALID,0,VALID,19.9773,VALID,36,VALID,0,
2014-11-03, 01:05:05,VALID,918.698,VALID,0,VALID,97.4959,VALID,0,VALID,19.9773,VALID,35,VALID,0,
2014-11-03, 01:06:05,VALID,918.652,VALID,0,VALID,97.5035,VALID,0,VALID,19.9578,VALID,35,VALID,0,
2014-11-03, 01:07:05,VALID,918.641,VALID,0,VALID,97.5187,VALID,0,VALID,19.9578,VALID,35,VALID,0,
2014-11-03, 01:08:05,VALID,918.638,VALID,0,VALID,97.5111,VALID,0,VALID,19.9968,VALID,35,VALID,0,
2014-11-03, 01:09:05,VALID,918.623,VALID,0,VALID,97.5264,VALID,0,VALID,19.9953,VALID,35,VALID,0,
2014-11-03, 01:10:05,VALID,918.608,VALID,0,VALID,97.5264,VALID,0,VALID,19.9563,VALID,355,VALID,0,
2014-11-03, 01:11:05,VALID,918.608,VALID,0,VALID,97.534,VALID,0,VALID,19.9368,VALID,355,VALID,0,
2014-11-03, 01:12:05,VALID,918.59,VALID,0,VALID,97.5569,VALID,0,VALID,19.9563,VALID,355,VALID,0,
2014-11-03, 01:13:05,VALID,918.59,VALID,0,VALID,97.5492,VALID,0,VALID,19.9758,VALID,355,VALID,0,
2014-11-03, 01:14:05,VALID,918.522,VALID,0,VALID,97.5492,VALID,0,VALID,19.9758,VALID,355,VALID,0,
2014-11-03, 01:15:05,VALID,918.529,VALID,0,VALID,97.5569,VALID,0,VALID,19.9938,VALID,355,VALID,0,
2014-11-03, 01:16:05,VALID,918.475,VALID,0,VALID,97.5492,VALID,0,VALID,20.0343,VALID,6,VALID,0,
2014-11-03, 01:17:05,VALID,918.479,VALID,0,VALID,97.5645,VALID,0,VALID,20.0538,VALID,7,VALID,0,
2014-11-03, 01:18:05,VALID,918.484,VALID,0,VALID,97.5569,VALID,0,VALID,20.0343,VALID,7,VALID,0.735156,
2014-11-03, 01:19:05,VALID,918.478,VALID,0,VALID,97.5569,VALID,0,VALID,20.0343,VALID,27,VALID,0.0683594,
2014-11-03, 01:20:05,VALID,918.426,VALID,0,VALID,97.5645,VALID,0,VALID,20.0148,VALID,24,VALID,0.673047,
2014-11-03, 01:21:05,VALID,918.422,VALID,0,VALID,97.595,VALID,0,VALID,20.0148,VALID,19,VALID,0,
2014-11-03, 01:22:05,VALID,918.41,VALID,0,VALID,97.6026,VALID,0,VALID,19.9758,VALID,5,VALID,0.819141,
2014-11-03, 01:23:05,VALID,918.354,VALID,0,VALID,97.6255,VALID,0.107441,VALID,19.9158,VALID,12,VALID,2.89375,
2014-11-03, 01:24:05,VALID,918.349,VALID,0,VALID,97.6331,VALID,0,VALID,19.9158,VALID,13,VALID,0.929688,
2014-11-03, 01:25:05,VALID,918.321,VALID,0,VALID,97.6255,VALID,0.107441,VALID,19.9563,VALID,32,VALID,1.07227,
2014-11-03, 01:26:05,VALID,918.292,VALID,0,VALID,97.6026,VALID,0.107441,VALID,19.9353,VALID,19,VALID,1.05703,
2014-11-03, 01:27:05,VALID,918.303,VALID,0,VALID,97.6102,VALID,0,VALID,19.9758,VALID,19,VALID,0.584766,
2014-11-03, 01:28:05,VALID,918.28,VALID,0,VALID,97.595,VALID,0,VALID,19.9953,VALID,6,VALID,0.0578125,
2014-11-03, 01:29:05,VALID,918.278,VALID,0,VALID,97.6331,VALID,0.107441,VALID,19.9758,VALID,355,VALID,0,
2014-11-03, 01:30:05,VALID,918.267,VALID,0,VALID,97.6407,VALID,0,VALID,19.9563,VALID,360,VALID,0,
2014-11-03, 01:31:05,VALID,918.259,VALID,0,VALID,97.6483,VALID,0,VALID,19.9353,VALID,2,VALID,0,
2014-11-03, 01:32:05,VALID,918.243,VALID,0,VALID,97.6255,VALID,0.107441,VALID,19.9563,VALID,2,VALID,0,
2014-11-03, 01:33:05,VALID,918.224,VALID,0,VALID,97.6331,VALID,0,VALID,19.9743,VALID,2,VALID,0,
2014-11-03, 01:34:05,VALID,918.217,VALID,0,VALID,97.6407,VALID,0.107441,VALID,19.9953,VALID,2,VALID,0,
2014-11-03, 01:35:05,VALID,918.216,VALID,0,VALID,97.6788,VALID,0,VALID,19.9368,VALID,348,VALID,1.21992,
2014-11-03, 01:36:05,VALID,918.207,VALID,0,VALID,97.6483,VALID,0,VALID,19.8963,VALID,34,VALID,1.40508,
2014-11-03, 01:37:05,VALID,918.197,VALID,0,VALID,97.656,VALID,0.107441,VALID,19.9173,VALID,27,VALID,1.15273,
2014-11-03, 01:38:05,VALID,918.184,VALID,0,VALID,97.656,VALID,0.107441,VALID,19.9368,VALID,28,VALID,0.605859,
2014-11-03, 01:39:05,VALID,918.166,VALID,0,VALID,97.656,VALID,0.107441,VALID,19.9353,VALID,27,VALID,0,
2014-11-03, 01:40:05,VALID,918.137,VALID,0,VALID,97.6636,VALID,0.107441,VALID,19.9173,VALID,51,VALID,0.846484,
2014-11-03, 01:41:05,VALID,918.14,VALID,0,VALID,97.6636,VALID,0,VALID,19.9368,VALID,45,VALID,0.0121094,
2014-11-03, 01:42:05,VALID,918.125,VALID,0,VALID,97.6941,VALID,0,VALID,19.8963,VALID,336,VALID,1.12734,
2014-11-03, 01:43:05,VALID,918.074,VALID,0,VALID,97.6788,VALID,0.107441,VALID,19.8588,VALID,20,VALID,0.641406,
2014-11-03, 01:44:05,VALID,918.096,VALID,0,VALID,97.6941,VALID,0.107441,VALID,19.8588,VALID,26,VALID,0.785937,
2014-11-03, 01:45:05,VALID,918.072,VALID,0,VALID,97.7246,VALID,0.107441,VALID,19.8393,VALID,25,VALID,1.0543,
2014-11-03, 01:46:05,VALID,918.073,VALID,0,VALID,97.6941,VALID,0.107441,VALID,19.8393,VALID,23,VALID,0.946484,
2014-11-03, 01:47:05,VALID,918.05,VALID,0,VALID,97.7093,VALID,0,VALID,19.8183,VALID,34,VALID,0.632031,
2014-11-03, 01:48:05,VALID,918.025,VALID,0,VALID,97.7322,VALID,0,VALID,19.8003,VALID,357,VALID,0.165625,
2014-11-03, 01:49:05,VALID,918.024,VALID,0,VALID,97.7169,VALID,0,VALID,19.8003,VALID,352,VALID,0.223438,
2014-11-03, 01:50:05,VALID,917.998,VALID,0,VALID,97.7246,VALID,0.107441,VALID,19.7403,VALID,9,VALID,0.887109,
2014-11-03, 01:51:05,VALID,917.973,VALID,0,VALID,97.7322,VALID,0,VALID,19.7223,VALID,8,VALID,0.825781,
2014-11-03, 01:52:05,VALID,917.968,VALID,0,VALID,97.7246,VALID,0,VALID,19.6833,VALID,24,VALID,1.05586,
2014-11-03, 01:53:05,VALID,917.928,VALID,0,VALID,97.7398,VALID,0,VALID,19.6248,VALID,17,VALID,1.33477,
2014-11-03, 01:54:05,VALID,917.9,VALID,0,VALID,97.7474,VALID,0,VALID,19.6248,VALID,26,VALID,0.842188,
2014-11-03, 01:55:05,VALID,917.891,VALID,0,VALID,97.7322,VALID,0.107441,VALID,19.6038,VALID,28,VALID,0.630469,
2014-11-03, 01:56:05,VALID,917.911,VALID,0,VALID,97.7474,VALID,0,VALID,19.6443,VALID,13,VALID,0.788281,
2014-11-03, 01:57:05,VALID,917.875,VALID,0,VALID,97.7474,VALID,0.107441,VALID,19.6443,VALID,10,VALID,1.25,
2014-11-03, 01:58:05,VALID,917.877,VALID,0,VALID,97.7551,VALID,0,VALID,19.6638,VALID,1,VALID,0.4125,
2014-11-03, 01:59:05,VALID,917.863,VALID,0,VALID,97.7474,VALID,0.107441,VALID,19.6443,VALID,358,VALID,1.06055,
2014-11-03, 02:00:05,VALID,917.838,VALID,0,VALID,97.7551,VALID,0,VALID,19.6443,VALID,29,VALID,1.44023,
2014-11-03, 02:01:05,VALID,917.854,VALID,0,VALID,97.7551,VALID,0,VALID,19.6248,VALID,26,VALID,1.28281,
2014-11-03, 02:02:05,VALID,917.766,VALID,0,VALID,97.7474,VALID,0.107441,VALID,19.6443,VALID,5,VALID,1.19258,
2014-11-03, 02:03:05,VALID,917.797,VALID,0,VALID,97.7551,VALID,0.107441,VALID,19.6443,VALID,11,VALID,1.31875,
2014-11-03, 02:04:05,VALID,917.765,VALID,0,VALID,97.7398,VALID,0.107441,VALID,19.6038,VALID,16,VALID,1.05586,
2014-11-03, 02:05:05,VALID,917.765,VALID,0,VALID,97.7856,VALID,0,VALID,19.5663,VALID,29,VALID,1.58281,
2014-11-03, 02:06:05,VALID,917.742,VALID,0,VALID,97.7779,VALID,0,VALID,19.5468,VALID,25,VALID,0.66875,
2014-11-03, 02:07:05,VALID,917.706,VALID,0,VALID,97.8008,VALID,0.107441,VALID,19.4883,VALID,5,VALID,1.53945,
2014-11-03, 02:08:05,VALID,917.733,VALID,0,VALID,97.8084,VALID,0,VALID,19.4493,VALID,7,VALID,1.74531,
2014-11-03, 02:09:05,VALID,917.722,VALID,0,VALID,97.8008,VALID,0,VALID,19.4298,VALID,29,VALID,1.4918,
2014-11-03, 02:10:05,VALID,917.683,VALID,0,VALID,97.7932,VALID,0,VALID,19.4493,VALID,32,VALID,1.08984,
2014-11-03, 02:11:05,VALID,917.658,VALID,0,VALID,97.816,VALID,0,VALID,19.4298,VALID,35,VALID,1.54727,
2014-11-03, 02:12:05,VALID,917.635,VALID,0,VALID,97.7856,VALID,0,VALID,19.4298,VALID,37,VALID,1.57461,
2014-11-03, 02:13:05,VALID,917.658,VALID,0,VALID,97.7932,VALID,0,VALID,19.4703,VALID,7,VALID,0.522656,
2014-11-03, 02:14:05,VALID,917.664,VALID,0,VALID,97.816,VALID,0,VALID,19.4298,VALID,8,VALID,1.2168,
2014-11-03, 07:08:04,VALID,920.9,VALID,0,VALID,96.9775,VALID,59.3075,VALID,19.1388,VALID,35,VALID,0.498437,
2014-11-03, 07:09:04,INVALID,918.682,VALID,0,VALID,96.9775,VALID,59.5224,VALID,19.1583,VALID,33,VALID,0.603906,
2014-11-03, 07:10:04,VALID,919.643,VALID,0,VALID,96.9851,VALID,61.0266,VALID,19.1778,VALID,1,VALID,0.398047,
2014-11-03, 07:11:04,VALID,918.537,VALID,0,VALID,96.9775,VALID,62.101,VALID,19.1568,VALID,1,VALID,0.151562,
2014-11-03, 07:12:04,VALID,918.468,VALID,0,VALID,96.9622,VALID,63.2828,VALID,19.1568,VALID,32,VALID,1.51836,
2014-11-03, 07:13:04,INVALID,920.797,VALID,0,VALID,96.8784,VALID,64.4647,VALID,19.1178,VALID,353,VALID,1.11602,
2014-11-03, 07:14:04,VALID,921.081,VALID,0,VALID,96.8631,VALID,66.5061,VALID,19.1568,VALID,352,VALID,0.486719,
2014-11-03, 07:15:04,VALID,920.096,VALID,0,VALID,96.7869,VALID,69.0847,VALID,19.1373,VALID,352,VALID,0.235547,
2014-11-03, 07:16:04,VALID,920.621,VALID,0,VALID,96.7716,VALID,71.8781,VALID,19.1778,VALID,352,VALID,0,
2014-11-03, 07:17:04,VALID,921.418,VALID,0,VALID,96.7488,VALID,74.4567,VALID,19.1973,VALID,352,VALID,0,
2014-11-03, 07:18:04,VALID,921.428,VALID,0,VALID,96.7564,VALID,72.2005,VALID,19.2363,INVALID,360,VALID,0,
2014-11-03, 07:19:04,VALID,920.384,VALID,0,VALID,96.7259,VALID,72.4153,VALID,19.2543,VALID,352,VALID,0,
2014-11-03, 07:20:04,VALID,920.544,VALID,0,VALID,96.7411,VALID,75.8535,VALID,19.2933,VALID,352,VALID,0,
2014-11-03, 07:21:04,VALID,921.121,VALID,0,VALID,96.7259,VALID,76.9279,VALID,19.3338,VALID,352,VALID,0.174219,
2014-11-03, 07:22:04,VALID,920.895,VALID,0,VALID,96.5963,VALID,79.1841,VALID,19.3143,VALID,352,VALID,0,
2014-11-03, 07:23:04,VALID,921.648,VALID,0,VALID,96.5124,VALID,84.6636,VALID,19.3518,VALID,352,VALID,0,
2014-11-03, 07:24:04,VALID,920.805,VALID,0,VALID,96.4743,VALID,91.0027,VALID,19.3908,VALID,15,VALID,0.867578,
2014-11-03, 07:25:04,VALID,920.167,VALID,0,VALID,96.3829,VALID,95.8375,VALID,19.4103,VALID,23,VALID,0.553125,
2014-11-03, 07:26:04,VALID,920.123,VALID,0,VALID,96.0322,VALID,97.8789,VALID,19.3713,VALID,22,VALID,0.667578,
2014-11-03, 07:27:04,VALID,920.013,VALID,0,VALID,95.9407,VALID,100.672,VALID,19.4118,VALID,9,VALID,0,
2014-11-03, 07:28:04,VALID,919.981,VALID,0,VALID,95.6357,VALID,103.466,VALID,19.3698,VALID,25,VALID,0,
2014-11-03, 07:29:04,VALID,919.991,VALID,0,VALID,94.7972,VALID,105.4,VALID,19.3533,VALID,25,VALID,0,
2014-11-03, 07:30:04,VALID,920.011,VALID,0,VALID,93.707,VALID,106.904,VALID,19.3533,VALID,26,VALID,0.607813,
2014-11-03, 07:31:04,VALID,919.991,VALID,0,VALID,93.1658,VALID,108.408,VALID,19.3713,VALID,23,VALID,0.664063,
2014-11-03, 07:32:04,VALID,919.995,VALID,0,VALID,93.0285,VALID,110.342,VALID,19.3908,VALID,25,VALID,0,
2014-11-03, 07:33:04,VALID,920.028,VALID,0,VALID,92.5864,VALID,112.706,VALID,19.4103,VALID,40,VALID,0.525781,
2014-11-03, 07:34:04,VALID,920.004,VALID,0,VALID,91.6182,VALID,114.855,VALID,19.4508,VALID,30,VALID,0.616016,
2014-11-03, 07:35:04,VALID,920.012,VALID,0,VALID,91.1684,VALID,115.929,VALID,19.4493,VALID,18,VALID,0.745313,
2014-11-03, 07:36:04,VALID,920.061,VALID,0,VALID,89.9106,VALID,116.789,VALID,19.4313,VALID,24,VALID,0,
2014-11-03, 07:37:04,VALID,920.086,VALID,0,VALID,89.8496,VALID,117.756,VALID,19.4703,VALID,24,VALID,0.178125,
2014-11-03, 07:38:04,VALID,920.099,VALID,0,VALID,90.5662,VALID,119.045,VALID,19.4883,VALID,18,VALID,0,
2014-11-03, 07:39:04,VALID,920.125,VALID,0,VALID,90.9397,VALID,120.871,VALID,19.5468,VALID,16,VALID,0,
2014-11-03, 07:40:04,VALID,920.133,VALID,0,VALID,90.5204,VALID,122.161,VALID,19.5858,VALID,43,VALID,0,
2014-11-03, 07:41:04,VALID,920.147,VALID,0,VALID,89.7047,VALID,122.913,VALID,19.5858,VALID,43,VALID,0,
2014-11-03, 07:42:04,VALID,920.165,VALID,0,VALID,88.5993,VALID,122.805,VALID,19.5663,VALID,43,VALID,0.953906,
2014-11-03, 07:43:04,VALID,920.159,VALID,0,VALID,88.2487,VALID,122.698,VALID,19.5273,VALID,39,VALID,0.517187,
2014-11-03, 07:44:04,VALID,920.18,VALID,0,VALID,88.8052,VALID,122.805,VALID,19.5468,VALID,36,VALID,0,
2014-11-03, 07:45:04,VALID,920.179,VALID,0,VALID,89.3464,VALID,122.59,VALID,19.5858,VALID,36,VALID,0,
2014-11-03, 07:46:04,VALID,920.209,VALID,0,VALID,89.6819,VALID,123.02,VALID,19.6443,VALID,36,VALID,0,
2014-11-03, 07:47:04,VALID,920.223,VALID,0,VALID,89.5065,VALID,124.095,VALID,19.7223,VALID,36,VALID,0,
2014-11-03, 07:48:04,VALID,920.218,VALID,0,VALID,89.3159,VALID,125.384,VALID,19.7808,VALID,36,VALID,0,
2014-11-03, 07:49:04,VALID,920.25,VALID,0,VALID,88.4088,VALID,127.103,VALID,19.8393,VALID,36,VALID,0,
2014-11-03, 07:50:04,VALID,920.287,VALID,0,VALID,87.654,VALID,129.037,VALID,19.8588,VALID,36,VALID,0,
2014-11-03, 07:51:04,VALID,920.262,VALID,0,VALID,86.9832,VALID,131.508,VALID,19.8783,VALID,37,VALID,0,
2014-11-03, 07:52:04,VALID,920.263,VALID,0,VALID,86.9832,VALID,134.409,VALID,19.9368,VALID,37,VALID,0,
2014-11-03, 07:53:04,VALID,920.277,VALID,0,VALID,87.1585,VALID,137.847,VALID,20.0343,VALID,37,VALID,0,
2014-11-03, 07:54:04,VALID,920.251,VALID,0,VALID,86.2285,VALID,141.07,VALID,20.0343,VALID,71,VALID,0,
2014-11-03, 07:55:04,VALID,920.28,VALID,0,VALID,85.672,VALID,143.649,VALID,20.0523,VALID,71,VALID,0,
2014-11-03, 07:56:04,VALID,920.285,VALID,0,VALID,85.4661,VALID,145.905,VALID,20.1123,VALID,71,VALID,0,
2014-11-03, 07:57:04,VALID,920.284,VALID,0,VALID,85.9159,VALID,147.946,VALID,20.2098,VALID,71,VALID,0,
2014-11-03, 07:58:04,VALID,920.327,VALID,0,VALID,86.6477,VALID,149.236,VALID,20.2684,VALID,71,VALID,0,
2014-11-03, 07:59:04,VALID,920.283,VALID,0,VALID,87.0061,VALID,150.31,VALID,20.3269,VALID,71,VALID,0,
2014-11-03, 08:00:04,VALID,920.329,VALID,0,VALID,87.654,VALID,151.277,VALID,20.3269,VALID,71,VALID,0,
2014-11-03, 08:01:04,VALID,920.353,VALID,0,VALID,87.7989,VALID,151.599,VALID,20.2293,VALID,157,VALID,0.673047,
2014-11-03, 08:02:04,VALID,920.362,VALID,0,VALID,88.6222,VALID,151.599,VALID,20.1903,VALID,157,VALID,0,
2014-11-03, 08:03:04,VALID,920.394,VALID,0,VALID,88.3401,VALID,151.707,VALID,20.1303,VALID,150,VALID,0,
2014-11-03, 08:04:04,VALID,920.386,VALID,0,VALID,88.6756,VALID,152.137,VALID,20.1108,VALID,147,VALID,0,
2014-11-03, 08:05:04,VALID,920.39,VALID,0,VALID,88.6603,VALID,152.674,VALID,20.0928,VALID,155,VALID,0,
2014-11-03, 08:06:04,VALID,920.353,VALID,0,VALID,88.7594,VALID,153.319,VALID,20.1123,VALID,132,VALID,0.548437,
2014-11-03, 08:07:04,VALID,920.366,VALID,0,VALID,88.3401,VALID,154.5,VALID,20.0328,VALID,124,VALID,0.0558594,
2014-11-03, 08:08:04,VALID,920.405,VALID,0,VALID,88.7366,VALID,155.897,VALID,20.0733,VALID,124,VALID,0,
2014-11-03, 08:09:04,VALID,920.383,VALID,0,VALID,89.0567,VALID,158.261,VALID,20.0928,VALID,133,VALID,0,
2014-11-03, 08:10:04,VALID,920.383,VALID,0,VALID,89.4227,VALID,160.732,VALID,20.1513,VALID,134,VALID,0,
2014-11-03, 08:11:04,VALID,920.38,VALID,0,VALID,89.415,VALID,164.922,VALID,20.2293,VALID,120,VALID,0,
2014-11-03, 08:12:04,VALID,920.403,VALID,0,VALID,89.2016,VALID,169.864,VALID,20.2083,VALID,113,VALID,0,
2014-11-03, 08:13:04,VALID,920.398,VALID,0,VALID,89.1025,VALID,175.129,VALID,20.2083,VALID,136,VALID,0,
2014-11-03, 08:14:04,VALID,920.431,VALID,0,VALID,88.3706,VALID,181.361,VALID,20.2278,VALID,162,VALID,0,
2014-11-03, 08:15:04,VALID,920.427,VALID,0,VALID,88.2639,VALID,188.774,VALID,20.2879,VALID,164,VALID,0.541016,
2014-11-03, 08:16:04,VALID,920.412,VALID,0,VALID,87.5321,VALID,196.94,VALID,20.2668,VALID,164,VALID,0,
2014-11-03, 08:17:04,VALID,920.415,VALID,0,VALID,87.6769,VALID,204.89,VALID,20.3643,VALID,174,VALID,0,
2014-11-03, 08:18:04,VALID,920.407,VALID,0,VALID,87.6769,VALID,212.519,VALID,20.4033,VALID,161,VALID,0,
2014-11-03, 08:19:04,VALID,920.429,VALID,0,VALID,87.0365,VALID,220.147,VALID,20.4228,VALID,143,VALID,0,
2014-11-03, 08:20:04,VALID,920.414,VALID,0,VALID,88.2029,VALID,227.453,VALID,20.4618,VALID,151,VALID,0,
2014-11-03, 08:21:04,VALID,920.408,VALID,0,VALID,88.8585,VALID,234.759,VALID,20.5204,VALID,181,VALID,0.0417969,
2014-11-03, 08:22:04,VALID,920.422,VALID,0,VALID,87.9666,VALID,241.528,VALID,20.5399,VALID,175,VALID,0.0289063,
2014-11-03, 08:23:04,VALID,920.437,VALID,0,VALID,86.8688,VALID,248.189,VALID,20.5804,VALID,156,VALID,0.905078,
2014-11-03, 08:24:04,VALID,920.45,VALID,0,VALID,87.6235,VALID,254.743,VALID,20.6194,VALID,163,VALID,0,
2014-11-03, 08:25:04,VALID,920.436,VALID,0,VALID,87.1661,VALID,263.231,VALID,20.6975,VALID,135,VALID,0,
2014-11-03, 08:26:04,VALID,920.427,VALID,0,VALID,87.2195,VALID,273.653,VALID,20.7365,VALID,147,VALID,0,
2014-11-03, 08:27:04,VALID,920.443,VALID,0,VALID,87.3339,VALID,274.942,VALID,20.7755,VALID,124,VALID,0,
2014-11-03, 08:28:04,VALID,920.428,VALID,0,VALID,85.489,VALID,272.148,VALID,20.7154,VALID,136,VALID,0,
2014-11-03, 08:29:04,VALID,920.45,VALID,0,VALID,87.1966,VALID,268.71,VALID,20.7349,VALID,165,VALID,0,
2014-11-03, 08:30:04,VALID,920.468,VALID,0,VALID,85.3823,VALID,264.95,VALID,20.7349,VALID,165,VALID,0,
2014-11-03, 08:31:04,VALID,920.449,VALID,0,VALID,84.2083,VALID,262.801,VALID,20.7739,VALID,148,VALID,0,
2014-11-03, 08:32:04,VALID,920.444,VALID,0,VALID,85.2145,VALID,259.148,VALID,20.8324,VALID,152,VALID,0,
2014-11-03, 08:33:04,VALID,920.438,VALID,0,VALID,85.1841,VALID,258.718,VALID,20.93,VALID,149,VALID,0,
2014-11-03, 08:34:04,VALID,920.444,VALID,0,VALID,85.6491,VALID,259.578,VALID,20.93,VALID,227,VALID,0,
2014-11-03, 08:35:04,VALID,920.444,VALID,0,VALID,85.0926,VALID,260.222,VALID,20.9885,VALID,190,VALID,0,
2014-11-03, 08:36:04,VALID,920.458,VALID,0,VALID,84.5513,VALID,259.255,VALID,21.0454,VALID,189,VALID,0,
2014-11-03, 08:37:04,VALID,920.454,VALID,0,VALID,83.9338,VALID,257.966,VALID,21.0844,VALID,171,VALID,0,
2014-11-03, 08:38:04,VALID,920.459,VALID,0,VALID,84.5666,VALID,255.71,VALID,21.1445,VALID,168,VALID,0,
2014-11-03, 08:39:04,VALID,920.51,VALID,0,VALID,84.254,VALID,253.561,VALID,21.1819,VALID,182,VALID,0,